Vancouver, WA

1:11 AM PST on December 10, 2016 (GMT -0800)
Pearson

Weather History for KVUO - February, 2013

Change the Weather History Date:

Tuesday, February 19, 2013

  Actual Average Record
Temperature  
Mean Temperature 44 °F 44 °F  
Max Temperature 54 °F 52 °F 69 °F (1977)
Min Temperature 34 °F 35 °F 15 °F (2006)
Degree Days  
Heating Degree Days 21    
Month to date heating degree days 416  
Since 1 July heating degree days 2839  
Cooling Degree Days 0    
Month to date cooling degree days 0  
Year to date cooling degree days 0  
Moisture  
Dew Point 35 °F    
Average Humidity 69    
Maximum Humidity 92    
Minimum Humidity 45    
Precipitation  
Precipitation 0.05 in 0.10 in 2.54 in (1968)
Month to date precipitation 0.30 2.82  
Year to date precipitation 3.70 8.32  
Snow  
Snow 0.00 in - - ()
Month to date snowfall 0.0  
Snow Depth 0.00 in    
Sea Level Pressure  
Sea Level Pressure 29.80 in    
Wind  
Wind Speed 4 mph (ENE)    
Max Wind Speed 13 mph    
Max Gust Speed 21 mph    
Visibility 10 miles    
Events Rain    
T = Trace of Precipitation, MM = Missing Value Source: NWS Daily Summary

Daily Weather History Graph

Daily Weather History Graph

Search for Another Location

Airport or City:

Trip Planner

Search our weather history database for the weather conditions in past years. The results will help you decide how hot, cold, wet, or windy it might be!

Date:

Astronomy

Feb. 19, 2013 Rise Set
Actual Time 7:05 AM PST 5:43 PM PST
Civil Twilight 6:35 AM PST 6:14 PM PST
Nautical Twilight 6:00 AM PST 6:48 PM PST
Astronomical Twilight 5:26 AM PST 7:23 PM PST
Moon 12:10 PM PST (2/19) 2:51 AM PST (2/19)
Length of Visible Light 11h 38m
Length of Day
10h 38m
Waxing Gibbous, 68% of the Moon is Illuminated
Feb 19
Waxing Gibbous
Feb 25
Full
Mar 4
Last Quarter
Mar 11
New
Mar 19
First Quarter

Hourly Weather History & Observations

Time (PST) Temp. Windchill Dew Point Humidity Pressure Visibility Wind Dir Wind Speed Gust Speed Precip Events Conditions
12:53 AM 42.1 °F 37.1 °F 35.1 °F 76% 29.75 in 10.0 mi ESE 8.1 mph - 0.00 in Rain Light Rain
1:00 AM 42.8 °F 41.1 °F 35.6 °F 76% 29.74 in 10.0 mi ESE 3.5 mph - 0.00 in Rain Light Rain
1:53 AM 41.0 °F 37.1 °F 37.0 °F 86% 29.73 in 10.0 mi East 5.8 mph - 0.02 in   Overcast
2:26 AM 41.0 °F 39.0 °F 35.6 °F 81% 29.72 in 10.0 mi East 3.5 mph - N/A   Overcast
2:53 AM 41.0 °F 38.0 °F 36.0 °F 82% 29.72 in 10.0 mi ESE 4.6 mph - 0.00 in Rain Light Rain
3:22 AM 39.2 °F 35.0 °F 35.6 °F 87% 29.72 in 10.0 mi ESE 5.8 mph - 0.00 in Rain Light Rain
3:53 AM 39.9 °F - 36.0 °F 86% 29.72 in 10.0 mi Calm Calm - 0.01 in Rain Light Rain
4:16 AM 39.2 °F 35.9 °F 35.6 °F 87% 29.72 in 10.0 mi East 4.6 mph - 0.00 in Rain Light Rain
4:53 AM 39.9 °F 37.8 °F 36.0 °F 86% 29.72 in 10.0 mi ESE 3.5 mph - 0.01 in Rain Light Rain
5:21 AM 39.2 °F - 37.4 °F 93% 29.72 in 10.0 mi Calm Calm - 0.00 in Rain Light Rain
5:44 AM 39.2 °F 34.2 °F 37.4 °F 93% 29.72 in 10.0 mi East 6.9 mph - 0.01 in Rain Light Rain
5:53 AM 39.9 °F 36.7 °F 36.0 °F 86% 29.73 in 10.0 mi East 4.6 mph - 0.01 in   Overcast
6:53 AM 39.0 °F - 35.1 °F 86% 29.73 in 10.0 mi Calm Calm - 0.00 in   Mostly Cloudy
7:53 AM 35.1 °F - 33.1 °F 92% 29.75 in 10.0 mi Calm Calm - N/A   Clear
8:53 AM 42.1 °F 38.4 °F 37.9 °F 85% 29.75 in 10.0 mi WNW 5.8 mph - N/A   Clear
10:53 AM 46.0 °F 41.9 °F 39.0 °F 76% 29.78 in 10.0 mi WNW 8.1 mph - N/A   Partly Cloudy
11:53 AM 48.9 °F - 37.9 °F 66% 29.78 in 10.0 mi WNW 9.2 mph - N/A   Clear
12:53 PM 51.1 °F - 36.0 °F 56% 29.79 in 10.0 mi NW 6.9 mph - N/A   Clear
1:53 PM 53.1 °F - 32.0 °F 45% 29.80 in 10.0 mi NNW 8.1 mph - N/A   Clear
2:53 PM 53.1 °F - 32.0 °F 45% 29.80 in 10.0 mi WNW 8.1 mph - N/A   Clear
4:53 PM 48.9 °F - 33.1 °F 54% 29.84 in 10.0 mi NE 4.6 mph - N/A   Scattered Clouds
5:53 PM 48.0 °F - 33.1 °F 56% 29.86 in 10.0 mi Variable 3.5 mph - N/A   Partly Cloudy
6:53 PM 46.0 °F - 33.1 °F 61% 29.88 in 10.0 mi Calm Calm - N/A   Clear
7:53 PM 42.1 °F - 34.0 °F 73% 29.91 in 10.0 mi Calm Calm - N/A   Clear
8:53 PM 37.0 °F - 32.0 °F 82% 29.94 in 10.0 mi Calm Calm - N/A   Partly Cloudy
9:53 PM 41.0 °F - 35.1 °F 79% 29.96 in 10.0 mi Calm Calm - N/A   Scattered Clouds
10:53 PM 37.9 °F - 34.0 °F 86% 29.99 in 10.0 mi Calm Calm - N/A   Overcast
11:53 PM 35.1 °F - 32.0 °F 89% 30.01 in 10.0 mi Calm Calm - N/A   Clear